PWSweather.com
Personal Weather Stations
Station Observations
KTXNEWBR92
New Braunfels, TX

New Braunfels, TX

Lat: 29.722, Lon: -98.17

Elevation: 850

Station Type:

High Low Average
Temperature 66.9°F19.4°C 55.9°F13.3°C 60.3°F15.7°C
Dew Point 59.9°F15.5°C 53.4°F11.9°C 56.3°F13.5°C
Winds 3.6 mph 5.8 kmh Calm Calm Calm ECalm E
Wind Gusts 4.9 mph7.9 kmh -- 1.0 mph1.6 kmh
Humidity 93% 76% 87%
Pressure 29.89 in1012.2 mb 29.80 in1009.1 mb -
Precipitation 0.00 in0.0 mm - -
Hour Temp Dew Point Humidity Winds Wind Gusts Pressure Precip Precip Rate Daily Precip Total
12:04 AM 57.4°F14.1°C 54.1°F12.3°C 89% Calm Calm -- 29.84 in1010.5 mb 0.00 in0.0 mm 0.00 in0.0 mm 0.00 in0.0 mm
12:09 AM 57.4°F14.1°C 54.1°F12.3°C 89% Calm Calm -- 29.84 in1010.5 mb 0.00 in0.0 mm 0.00 in0.0 mm 0.00 in0.0 mm
12:14 AM 57.4°F14.1°C 54.1°F12.3°C 89% 0.2 mph E0.3 kmh E 2.5 mph4.0 kmh 29.83 in1010.2 mb 0.00 in0.0 mm 0.00 in0.0 mm 0.00 in0.0 mm
12:19 AM 57.4°F14.1°C 54.1°F12.3°C 89% Calm Calm -- 29.84 in1010.5 mb 0.00 in0.0 mm 0.00 in0.0 mm 0.00 in0.0 mm
12:24 AM 57.4°F14.1°C 54.1°F12.3°C 89% Calm Calm -- 29.84 in1010.5 mb 0.00 in0.0 mm 0.00 in0.0 mm 0.00 in0.0 mm
12:29 AM 57.4°F14.1°C 54.1°F12.3°C 89% Calm Calm -- 29.84 in1010.5 mb 0.00 in0.0 mm 0.00 in0.0 mm 0.00 in0.0 mm
12:34 AM 57.4°F14.1°C 54.1°F12.3°C 89% Calm Calm -- 29.84 in1010.5 mb 0.00 in0.0 mm 0.00 in0.0 mm 0.00 in0.0 mm
12:39 AM 57.4°F14.1°C 54.1°F12.3°C 89% 0.9 mph E1.4 kmh E 2.5 mph4.0 kmh 29.84 in1010.5 mb 0.00 in0.0 mm 0.00 in0.0 mm 0.00 in0.0 mm
12:44 AM 57.4°F14.1°C 54.0°F12.2°C 88% Calm Calm -- 29.84 in1010.5 mb 0.00 in0.0 mm 0.00 in0.0 mm 0.00 in0.0 mm
12:49 AM 57.4°F14.1°C 54.0°F12.2°C 88% Calm Calm -- 29.83 in1010.2 mb 0.00 in0.0 mm 0.00 in0.0 mm 0.00 in0.0 mm
12:54 AM 57.4°F14.1°C 54.0°F12.2°C 88% Calm Calm -- 29.84 in1010.5 mb 0.00 in0.0 mm 0.00 in0.0 mm 0.00 in0.0 mm
01:04 AM 57.4°F14.1°C 54.0°F12.2°C 88% Calm Calm -- 29.84 in1010.5 mb 0.00 in0.0 mm 0.00 in0.0 mm 0.00 in0.0 mm
01:09 AM 57.4°F14.1°C 54.0°F12.2°C 88% Calm Calm -- 29.83 in1010.2 mb 0.00 in0.0 mm 0.00 in0.0 mm 0.00 in0.0 mm
01:14 AM 57.4°F14.1°C 54.0°F12.2°C 88% 0.2 mph E0.3 kmh E 2.5 mph4.0 kmh 29.84 in1010.5 mb 0.00 in0.0 mm 0.00 in0.0 mm 0.00 in0.0 mm
01:19 AM 57.4°F14.1°C 54.0°F12.2°C 88% Calm Calm -- 29.84 in1010.5 mb 0.00 in0.0 mm 0.00 in0.0 mm 0.00 in0.0 mm
01:24 AM 57.4°F14.1°C 54.0°F12.2°C 88% Calm Calm -- 29.83 in1010.2 mb 0.00 in0.0 mm 0.00 in0.0 mm 0.00 in0.0 mm
01:29 AM 57.4°F14.1°C 54.0°F12.2°C 88% Calm Calm -- 29.83 in1010.2 mb 0.00 in0.0 mm 0.00 in0.0 mm 0.00 in0.0 mm
01:34 AM 57.4°F14.1°C 54.0°F12.2°C 88% Calm Calm -- 29.83 in1010.2 mb 0.00 in0.0 mm 0.00 in0.0 mm 0.00 in0.0 mm
01:39 AM 57.4°F14.1°C 54.0°F12.2°C 88% Calm Calm -- 29.83 in1010.2 mb 0.00 in0.0 mm 0.00 in0.0 mm 0.00 in0.0 mm
01:44 AM 57.4°F14.1°C 54.0°F12.2°C 88% Calm Calm -- 29.83 in1010.2 mb 0.00 in0.0 mm 0.00 in0.0 mm 0.00 in0.0 mm
01:49 AM 57.4°F14.1°C 54.0°F12.2°C 88% Calm Calm -- 29.82 in1009.8 mb 0.00 in0.0 mm 0.00 in0.0 mm 0.00 in0.0 mm
01:54 AM 57.4°F14.1°C 54.0°F12.2°C 88% Calm Calm -- 29.83 in1010.2 mb 0.00 in0.0 mm 0.00 in0.0 mm 0.00 in0.0 mm
01:59 AM 57.4°F14.1°C 54.0°F12.2°C 88% Calm Calm -- 29.83 in1010.2 mb 0.00 in0.0 mm 0.00 in0.0 mm 0.00 in0.0 mm
02:04 AM 57.4°F14.1°C 54.0°F12.2°C 88% Calm Calm -- 29.83 in1010.2 mb 0.00 in0.0 mm 0.00 in0.0 mm 0.00 in0.0 mm
02:09 AM 57.2°F14.0°C 53.8°F12.1°C 88% Calm Calm -- 29.82 in1009.8 mb 0.00 in0.0 mm 0.00 in0.0 mm 0.00 in0.0 mm
02:14 AM 57.2°F14.0°C 53.8°F12.1°C 88% Calm Calm -- 29.82 in1009.8 mb 0.00 in0.0 mm 0.00 in0.0 mm 0.00 in0.0 mm
02:19 AM 57.2°F14.0°C 53.8°F12.1°C 88% Calm Calm -- 29.83 in1010.2 mb 0.00 in0.0 mm 0.00 in0.0 mm 0.00 in0.0 mm
02:24 AM 57.2°F14.0°C 53.8°F12.1°C 88% Calm Calm -- 29.82 in1009.8 mb 0.00 in0.0 mm 0.00 in0.0 mm 0.00 in0.0 mm
02:29 AM 57.2°F14.0°C 53.8°F12.1°C 88% Calm Calm -- 29.82 in1009.8 mb 0.00 in0.0 mm 0.00 in0.0 mm 0.00 in0.0 mm
02:34 AM 57.2°F14.0°C 53.8°F12.1°C 88% Calm Calm -- 29.83 in1010.2 mb 0.00 in0.0 mm 0.00 in0.0 mm 0.00 in0.0 mm
02:39 AM 57.2°F14.0°C 53.8°F12.1°C 88% Calm Calm -- 29.82 in1009.8 mb 0.00 in0.0 mm 0.00 in0.0 mm 0.00 in0.0 mm
02:44 AM 57.2°F14.0°C 53.8°F12.1°C 88% Calm Calm -- 29.82 in1009.8 mb 0.00 in0.0 mm 0.00 in0.0 mm 0.00 in0.0 mm
02:49 AM 57.2°F14.0°C 53.8°F12.1°C 88% Calm Calm -- 29.82 in1009.8 mb 0.00 in0.0 mm 0.00 in0.0 mm 0.00 in0.0 mm
02:53 AM 57.2°F14.0°C 53.8°F12.1°C 88% Calm Calm -- 29.82 in1009.8 mb 0.00 in0.0 mm 0.00 in0.0 mm 0.00 in0.0 mm
02:59 AM 57.2°F14.0°C 53.8°F12.1°C 88% Calm Calm -- 29.82 in1009.8 mb 0.00 in0.0 mm 0.00 in0.0 mm 0.00 in0.0 mm
03:04 AM 57.2°F14.0°C 54.0°F12.2°C 89% Calm Calm -- 29.82 in1009.8 mb 0.00 in0.0 mm 0.00 in0.0 mm 0.00 in0.0 mm
03:09 AM 57.2°F14.0°C 53.8°F12.1°C 88% Calm Calm -- 29.81 in1009.5 mb 0.00 in0.0 mm 0.00 in0.0 mm 0.00 in0.0 mm
03:14 AM 57.2°F14.0°C 54.0°F12.2°C 89% Calm Calm -- 29.81 in1009.5 mb 0.00 in0.0 mm 0.00 in0.0 mm 0.00 in0.0 mm
03:19 AM 57.2°F14.0°C 54.0°F12.2°C 89% Calm Calm -- 29.81 in1009.5 mb 0.00 in0.0 mm 0.00 in0.0 mm 0.00 in0.0 mm
03:24 AM 57.2°F14.0°C 54.0°F12.2°C 89% Calm Calm -- 29.81 in1009.5 mb 0.00 in0.0 mm 0.00 in0.0 mm 0.00 in0.0 mm
03:29 AM 57.2°F14.0°C 54.0°F12.2°C 89% Calm Calm -- 29.81 in1009.5 mb 0.00 in0.0 mm 0.00 in0.0 mm 0.00 in0.0 mm
03:34 AM 57.2°F14.0°C 54.0°F12.2°C 89% Calm Calm -- 29.80 in1009.1 mb 0.00 in0.0 mm 0.00 in0.0 mm 0.00 in0.0 mm
03:39 AM 57.2°F14.0°C 54.0°F12.2°C 89% Calm Calm -- 29.81 in1009.5 mb 0.00 in0.0 mm 0.00 in0.0 mm 0.00 in0.0 mm
03:44 AM 57.0°F13.9°C 53.8°F12.1°C 89% Calm Calm -- 29.81 in1009.5 mb 0.00 in0.0 mm 0.00 in0.0 mm 0.00 in0.0 mm
03:49 AM 57.0°F13.9°C 53.8°F12.1°C 89% Calm Calm -- 29.82 in1009.8 mb 0.00 in0.0 mm 0.00 in0.0 mm 0.00 in0.0 mm
03:54 AM 57.0°F13.9°C 53.8°F12.1°C 89% Calm Calm -- 29.82 in1009.8 mb 0.00 in0.0 mm 0.00 in0.0 mm 0.00 in0.0 mm
03:59 AM 57.0°F13.9°C 53.8°F12.1°C 89% Calm Calm -- 29.83 in1010.2 mb 0.00 in0.0 mm 0.00 in0.0 mm 0.00 in0.0 mm
04:04 AM 57.0°F13.9°C 53.8°F12.1°C 89% Calm Calm -- 29.83 in1010.2 mb 0.00 in0.0 mm 0.00 in0.0 mm 0.00 in0.0 mm
04:09 AM 57.0°F13.9°C 53.8°F12.1°C 89% Calm Calm -- 29.82 in1009.8 mb 0.00 in0.0 mm 0.00 in0.0 mm 0.00 in0.0 mm
04:14 AM 57.0°F13.9°C 53.8°F12.1°C 89% Calm Calm -- 29.83 in1010.2 mb 0.00 in0.0 mm 0.00 in0.0 mm 0.00 in0.0 mm
04:19 AM 57.0°F13.9°C 53.8°F12.1°C 89% Calm Calm -- 29.83 in1010.2 mb 0.00 in0.0 mm 0.00 in0.0 mm 0.00 in0.0 mm
04:24 AM 56.8°F13.8°C 53.6°F12.0°C 89% Calm Calm -- 29.83 in1010.2 mb 0.00 in0.0 mm 0.00 in0.0 mm 0.00 in0.0 mm
04:29 AM 56.8°F13.8°C 53.6°F12.0°C 89% Calm Calm -- 29.83 in1010.2 mb 0.00 in0.0 mm 0.00 in0.0 mm 0.00 in0.0 mm
04:34 AM 56.8°F13.8°C 53.6°F12.0°C 89% Calm Calm -- 29.83 in1010.2 mb 0.00 in0.0 mm 0.00 in0.0 mm 0.00 in0.0 mm
04:39 AM 56.8°F13.8°C 53.6°F12.0°C 89% Calm Calm -- 29.83 in1010.2 mb 0.00 in0.0 mm 0.00 in0.0 mm 0.00 in0.0 mm
04:44 AM 56.8°F13.8°C 53.6°F12.0°C 89% Calm Calm -- 29.83 in1010.2 mb 0.00 in0.0 mm 0.00 in0.0 mm 0.00 in0.0 mm
04:49 AM 56.7°F13.7°C 53.4°F11.9°C 89% Calm Calm -- 29.83 in1010.2 mb 0.00 in0.0 mm 0.00 in0.0 mm 0.00 in0.0 mm
04:54 AM 56.7°F13.7°C 53.4°F11.9°C 89% Calm Calm -- 29.83 in1010.2 mb 0.00 in0.0 mm 0.00 in0.0 mm 0.00 in0.0 mm
04:59 AM 56.7°F13.7°C 53.8°F12.1°C 90% Calm Calm -- 29.83 in1010.2 mb 0.00 in0.0 mm 0.00 in0.0 mm 0.00 in0.0 mm
05:04 AM 56.7°F13.7°C 53.8°F12.1°C 90% Calm Calm -- 29.83 in1010.2 mb 0.00 in0.0 mm 0.00 in0.0 mm 0.00 in0.0 mm
05:09 AM 56.5°F13.6°C 53.6°F12.0°C 90% Calm Calm -- 29.83 in1010.2 mb 0.00 in0.0 mm 0.00 in0.0 mm 0.00 in0.0 mm
05:14 AM 56.5°F13.6°C 53.6°F12.0°C 90% Calm Calm -- 29.83 in1010.2 mb 0.00 in0.0 mm 0.00 in0.0 mm 0.00 in0.0 mm
05:19 AM 56.5°F13.6°C 53.6°F12.0°C 90% Calm Calm -- 29.83 in1010.2 mb 0.00 in0.0 mm 0.00 in0.0 mm 0.00 in0.0 mm
05:24 AM 56.5°F13.6°C 54.0°F12.2°C 91% Calm Calm -- 29.83 in1010.2 mb 0.00 in0.0 mm 0.00 in0.0 mm 0.00 in0.0 mm
05:29 AM 56.5°F13.6°C 54.0°F12.2°C 91% Calm Calm -- 29.83 in1010.2 mb 0.00 in0.0 mm 0.00 in0.0 mm 0.00 in0.0 mm
05:34 AM 56.3°F13.5°C 53.8°F12.1°C 91% Calm Calm -- 29.83 in1010.2 mb 0.00 in0.0 mm 0.00 in0.0 mm 0.00 in0.0 mm
05:39 AM 56.3°F13.5°C 53.8°F12.1°C 91% Calm Calm -- 29.83 in1010.2 mb 0.00 in0.0 mm 0.00 in0.0 mm 0.00 in0.0 mm
05:44 AM 56.3°F13.5°C 53.8°F12.1°C 91% Calm Calm -- 29.82 in1009.8 mb 0.00 in0.0 mm 0.00 in0.0 mm 0.00 in0.0 mm
05:49 AM 56.3°F13.5°C 53.8°F12.1°C 91% Calm Calm -- 29.83 in1010.2 mb 0.00 in0.0 mm 0.00 in0.0 mm 0.00 in0.0 mm
05:54 AM 56.3°F13.5°C 54.0°F12.2°C 92% Calm Calm -- 29.83 in1010.2 mb 0.00 in0.0 mm 0.00 in0.0 mm 0.00 in0.0 mm
05:59 AM 56.3°F13.5°C 54.0°F12.2°C 92% Calm Calm -- 29.82 in1009.8 mb 0.00 in0.0 mm 0.00 in0.0 mm 0.00 in0.0 mm
06:04 AM 56.1°F13.4°C 53.8°F12.1°C 92% Calm Calm -- 29.82 in1009.8 mb 0.00 in0.0 mm 0.00 in0.0 mm 0.00 in0.0 mm
06:09 AM 56.1°F13.4°C 53.8°F12.1°C 92% Calm Calm -- 29.82 in1009.8 mb 0.00 in0.0 mm 0.00 in0.0 mm 0.00 in0.0 mm
06:14 AM 56.1°F13.4°C 53.8°F12.1°C 92% Calm Calm -- 29.83 in1010.2 mb 0.00 in0.0 mm 0.00 in0.0 mm 0.00 in0.0 mm
06:19 AM 56.1°F13.4°C 53.8°F12.1°C 92% Calm Calm -- 29.83 in1010.2 mb 0.00 in0.0 mm 0.00 in0.0 mm 0.00 in0.0 mm
06:24 AM 56.1°F13.4°C 53.8°F12.1°C 92% Calm Calm -- 29.83 in1010.2 mb 0.00 in0.0 mm 0.00 in0.0 mm 0.00 in0.0 mm
06:29 AM 56.1°F13.4°C 53.8°F12.1°C 92% Calm Calm -- 29.83 in1010.2 mb 0.00 in0.0 mm 0.00 in0.0 mm 0.00 in0.0 mm
06:34 AM 56.1°F13.4°C 53.8°F12.1°C 92% Calm Calm -- 29.83 in1010.2 mb 0.00 in0.0 mm 0.00 in0.0 mm 0.00 in0.0 mm
06:39 AM 56.1°F13.4°C 53.8°F12.1°C 92% Calm Calm -- 29.83 in1010.2 mb 0.00 in0.0 mm 0.00 in0.0 mm 0.00 in0.0 mm
06:44 AM 55.9°F13.3°C 54.0°F12.2°C 93% Calm Calm -- 29.83 in1010.2 mb 0.00 in0.0 mm 0.00 in0.0 mm 0.00 in0.0 mm
06:49 AM 55.9°F13.3°C 54.0°F12.2°C 93% Calm Calm -- 29.83 in1010.2 mb 0.00 in0.0 mm 0.00 in0.0 mm 0.00 in0.0 mm
06:54 AM 56.1°F13.4°C 54.1°F12.3°C 93% Calm Calm -- 29.83 in1010.2 mb 0.00 in0.0 mm 0.00 in0.0 mm 0.00 in0.0 mm
06:59 AM 56.1°F13.4°C 54.1°F12.3°C 93% Calm Calm -- 29.83 in1010.2 mb 0.00 in0.0 mm 0.00 in0.0 mm 0.00 in0.0 mm
07:04 AM 56.1°F13.4°C 54.1°F12.3°C 93% Calm Calm -- 29.83 in1010.2 mb 0.00 in0.0 mm 0.00 in0.0 mm 0.00 in0.0 mm
07:09 AM 56.1°F13.4°C 54.1°F12.3°C 93% Calm Calm -- 29.83 in1010.2 mb 0.00 in0.0 mm 0.00 in0.0 mm 0.00 in0.0 mm
07:14 AM 56.1°F13.4°C 54.1°F12.3°C 93% Calm Calm -- 29.84 in1010.5 mb 0.00 in0.0 mm 0.00 in0.0 mm 0.00 in0.0 mm
07:19 AM 56.1°F13.4°C 54.1°F12.3°C 93% Calm Calm -- 29.84 in1010.5 mb 0.00 in0.0 mm 0.00 in0.0 mm 0.00 in0.0 mm
07:24 AM 56.1°F13.4°C 54.1°F12.3°C 93% Calm Calm -- 29.85 in1010.8 mb 0.00 in0.0 mm 0.00 in0.0 mm 0.00 in0.0 mm
07:29 AM 56.1°F13.4°C 54.1°F12.3°C 93% Calm Calm -- 29.85 in1010.8 mb 0.00 in0.0 mm 0.00 in0.0 mm 0.00 in0.0 mm
07:34 AM 56.1°F13.4°C 54.1°F12.3°C 93% Calm Calm -- 29.85 in1010.8 mb 0.00 in0.0 mm 0.00 in0.0 mm 0.00 in0.0 mm
07:39 AM 56.1°F13.4°C 54.1°F12.3°C 93% Calm Calm -- 29.85 in1010.8 mb 0.00 in0.0 mm 0.00 in0.0 mm 0.00 in0.0 mm
07:44 AM 56.1°F13.4°C 54.1°F12.3°C 93% Calm Calm -- 29.85 in1010.8 mb 0.00 in0.0 mm 0.00 in0.0 mm 0.00 in0.0 mm
07:49 AM 56.1°F13.4°C 54.1°F12.3°C 93% Calm Calm -- 29.85 in1010.8 mb 0.00 in0.0 mm 0.00 in0.0 mm 0.00 in0.0 mm
07:54 AM 56.1°F13.4°C 54.1°F12.3°C 93% Calm Calm -- 29.85 in1010.8 mb 0.00 in0.0 mm 0.00 in0.0 mm 0.00 in0.0 mm
07:59 AM 56.1°F13.4°C 54.1°F12.3°C 93% Calm Calm -- 29.85 in1010.8 mb 0.00 in0.0 mm 0.00 in0.0 mm 0.00 in0.0 mm
08:04 AM 56.1°F13.4°C 54.1°F12.3°C 93% Calm Calm -- 29.86 in1011.2 mb 0.00 in0.0 mm 0.00 in0.0 mm 0.00 in0.0 mm
08:09 AM 56.1°F13.4°C 54.1°F12.3°C 93% Calm Calm -- 29.86 in1011.2 mb 0.00 in0.0 mm 0.00 in0.0 mm 0.00 in0.0 mm
08:14 AM 56.1°F13.4°C 54.1°F12.3°C 93% Calm Calm -- 29.86 in1011.2 mb 0.00 in0.0 mm 0.00 in0.0 mm 0.00 in0.0 mm
08:19 AM 56.1°F13.4°C 54.1°F12.3°C 93% Calm Calm -- 29.87 in1011.5 mb 0.00 in0.0 mm 0.00 in0.0 mm 0.00 in0.0 mm
08:24 AM 56.3°F13.5°C 54.3°F12.4°C 93% Calm Calm -- 29.87 in1011.5 mb 0.00 in0.0 mm 0.00 in0.0 mm 0.00 in0.0 mm
08:29 AM 56.3°F13.5°C 54.3°F12.4°C 93% Calm Calm -- 29.86 in1011.2 mb 0.00 in0.0 mm 0.00 in0.0 mm 0.00 in0.0 mm
08:34 AM 56.3°F13.5°C 54.3°F12.4°C 93% Calm Calm -- 29.87 in1011.5 mb 0.00 in0.0 mm 0.00 in0.0 mm 0.00 in0.0 mm
08:39 AM 56.3°F13.5°C 54.3°F12.4°C 93% Calm Calm -- 29.87 in1011.5 mb 0.00 in0.0 mm 0.00 in0.0 mm 0.00 in0.0 mm
08:44 AM 56.3°F13.5°C 54.3°F12.4°C 93% Calm Calm -- 29.87 in1011.5 mb 0.00 in0.0 mm 0.00 in0.0 mm 0.00 in0.0 mm
08:49 AM 56.3°F13.5°C 54.3°F12.4°C 93% Calm Calm -- 29.87 in1011.5 mb 0.00 in0.0 mm 0.00 in0.0 mm 0.00 in0.0 mm
08:54 AM 56.5°F13.6°C 54.5°F12.5°C 93% Calm Calm -- 29.87 in1011.5 mb 0.00 in0.0 mm 0.00 in0.0 mm 0.00 in0.0 mm
08:59 AM 56.5°F13.6°C 54.5°F12.5°C 93% Calm Calm -- 29.87 in1011.5 mb 0.00 in0.0 mm 0.00 in0.0 mm 0.00 in0.0 mm
09:04 AM 56.5°F13.6°C 54.5°F12.5°C 93% Calm Calm -- 29.86 in1011.2 mb 0.00 in0.0 mm 0.00 in0.0 mm 0.00 in0.0 mm
09:09 AM 56.5°F13.6°C 54.5°F12.5°C 93% Calm Calm -- 29.87 in1011.5 mb 0.00 in0.0 mm 0.00 in0.0 mm 0.00 in0.0 mm
09:14 AM 56.7°F13.7°C 54.7°F12.6°C 93% Calm Calm -- 29.87 in1011.5 mb 0.00 in0.0 mm 0.00 in0.0 mm 0.00 in0.0 mm
09:19 AM 56.7°F13.7°C 54.7°F12.6°C 93% Calm Calm -- 29.87 in1011.5 mb 0.00 in0.0 mm 0.00 in0.0 mm 0.00 in0.0 mm
09:24 AM 56.7°F13.7°C 54.7°F12.6°C 93% Calm Calm -- 29.87 in1011.5 mb 0.00 in0.0 mm 0.00 in0.0 mm 0.00 in0.0 mm
09:29 AM 56.8°F13.8°C 54.9°F12.7°C 93% Calm Calm -- 29.87 in1011.5 mb 0.00 in0.0 mm 0.00 in0.0 mm 0.00 in0.0 mm
09:34 AM 56.8°F13.8°C 54.9°F12.7°C 93% Calm Calm -- 29.87 in1011.5 mb 0.00 in0.0 mm 0.00 in0.0 mm 0.00 in0.0 mm
09:39 AM 56.8°F13.8°C 54.9°F12.7°C 93% Calm Calm -- 29.87 in1011.5 mb 0.00 in0.0 mm 0.00 in0.0 mm 0.00 in0.0 mm
09:44 AM 57.0°F13.9°C 55.0°F12.8°C 93% Calm Calm -- 29.87 in1011.5 mb 0.00 in0.0 mm 0.00 in0.0 mm 0.00 in0.0 mm
09:49 AM 57.2°F14.0°C 55.2°F12.9°C 93% Calm Calm -- 29.87 in1011.5 mb 0.00 in0.0 mm 0.00 in0.0 mm 0.00 in0.0 mm
09:54 AM 57.4°F14.1°C 55.4°F13.0°C 93% Calm Calm -- 29.88 in1011.9 mb 0.00 in0.0 mm 0.00 in0.0 mm 0.00 in0.0 mm
09:59 AM 57.6°F14.2°C 55.6°F13.1°C 93% Calm Calm -- 29.88 in1011.9 mb 0.00 in0.0 mm 0.00 in0.0 mm 0.00 in0.0 mm
10:04 AM 57.6°F14.2°C 55.6°F13.1°C 93% Calm Calm -- 29.88 in1011.9 mb 0.00 in0.0 mm 0.00 in0.0 mm 0.00 in0.0 mm
10:09 AM 57.7°F14.3°C 55.8°F13.2°C 93% Calm Calm -- 29.88 in1011.9 mb 0.00 in0.0 mm 0.00 in0.0 mm 0.00 in0.0 mm
10:14 AM 57.9°F14.4°C 55.9°F13.3°C 93% Calm Calm -- 29.88 in1011.9 mb 0.00 in0.0 mm 0.00 in0.0 mm 0.00 in0.0 mm
10:19 AM 57.9°F14.4°C 55.6°F13.1°C 92% 0.2 mph ENE0.3 kmh ENE 2.5 mph4.0 kmh 29.88 in1011.9 mb 0.00 in0.0 mm 0.00 in0.0 mm 0.00 in0.0 mm
10:24 AM 57.9°F14.4°C 55.6°F13.1°C 92% Calm Calm -- 29.88 in1011.9 mb 0.00 in0.0 mm 0.00 in0.0 mm 0.00 in0.0 mm
10:29 AM 58.1°F14.5°C 55.8°F13.2°C 92% Calm Calm -- 29.88 in1011.9 mb 0.00 in0.0 mm 0.00 in0.0 mm 0.00 in0.0 mm
10:34 AM 58.1°F14.5°C 55.8°F13.2°C 92% Calm Calm -- 29.88 in1011.9 mb 0.00 in0.0 mm 0.00 in0.0 mm 0.00 in0.0 mm
10:39 AM 58.3°F14.6°C 55.9°F13.3°C 92% Calm Calm -- 29.89 in1012.2 mb 0.00 in0.0 mm 0.00 in0.0 mm 0.00 in0.0 mm
10:44 AM 58.3°F14.6°C 55.9°F13.3°C 92% 0.4 mph E0.6 kmh E 2.5 mph4.0 kmh 29.89 in1012.2 mb 0.00 in0.0 mm 0.00 in0.0 mm 0.00 in0.0 mm
10:49 AM 58.3°F14.6°C 55.9°F13.3°C 92% Calm Calm -- 29.89 in1012.2 mb 0.00 in0.0 mm 0.00 in0.0 mm 0.00 in0.0 mm
10:54 AM 58.5°F14.7°C 56.1°F13.4°C 92% Calm Calm -- 29.88 in1011.9 mb 0.00 in0.0 mm 0.00 in0.0 mm 0.00 in0.0 mm
10:59 AM 58.6°F14.8°C 56.3°F13.5°C 92% Calm Calm -- 29.89 in1012.2 mb 0.00 in0.0 mm 0.00 in0.0 mm 0.00 in0.0 mm
11:04 AM 58.6°F14.8°C 56.1°F13.4°C 91% Calm Calm -- 29.89 in1012.2 mb 0.00 in0.0 mm 0.00 in0.0 mm 0.00 in0.0 mm
11:09 AM 58.8°F14.9°C 56.3°F13.5°C 91% Calm Calm -- 29.89 in1012.2 mb 0.00 in0.0 mm 0.00 in0.0 mm 0.00 in0.0 mm
11:14 AM 59.0°F15.0°C 56.1°F13.4°C 90% Calm Calm -- 29.88 in1011.9 mb 0.00 in0.0 mm 0.00 in0.0 mm 0.00 in0.0 mm
11:19 AM 59.2°F15.1°C 56.3°F13.5°C 90% Calm Calm -- 29.89 in1012.2 mb 0.00 in0.0 mm 0.00 in0.0 mm 0.00 in0.0 mm
11:24 AM 59.4°F15.2°C 55.8°F13.2°C 88% Calm Calm -- 29.89 in1012.2 mb 0.00 in0.0 mm 0.00 in0.0 mm 0.00 in0.0 mm
11:29 AM 59.7°F15.4°C 55.9°F13.3°C 87% 1.1 mph E1.8 kmh E 2.5 mph4.0 kmh 29.89 in1012.2 mb 0.00 in0.0 mm 0.00 in0.0 mm 0.00 in0.0 mm
11:34 AM 59.9°F15.5°C 56.1°F13.4°C 87% 2.0 mph ENE3.2 kmh ENE 2.5 mph4.0 kmh 29.89 in1012.2 mb 0.00 in0.0 mm 0.00 in0.0 mm 0.00 in0.0 mm
11:39 AM 60.1°F15.6°C 56.3°F13.5°C 87% Calm Calm -- 29.89 in1012.2 mb 0.00 in0.0 mm 0.00 in0.0 mm 0.00 in0.0 mm
11:44 AM 60.4°F15.8°C 56.3°F13.5°C 86% Calm Calm -- 29.88 in1011.9 mb 0.00 in0.0 mm 0.00 in0.0 mm 0.00 in0.0 mm
11:49 AM 60.6°F15.9°C 56.1°F13.4°C 85% Calm Calm -- 29.89 in1012.2 mb 0.00 in0.0 mm 0.00 in0.0 mm 0.00 in0.0 mm
11:54 AM 61.0°F16.1°C 56.5°F13.6°C 85% 0.2 mph E0.3 kmh E 2.5 mph4.0 kmh 29.89 in1012.2 mb 0.00 in0.0 mm 0.00 in0.0 mm 0.00 in0.0 mm
11:59 AM 61.2°F16.2°C 56.3°F13.5°C 84% Calm Calm -- 29.89 in1012.2 mb 0.00 in0.0 mm 0.00 in0.0 mm 0.00 in0.0 mm
12:04 PM 61.5°F16.4°C 56.7°F13.7°C 84% 0.2 mph E0.3 kmh E 2.5 mph4.0 kmh 29.89 in1012.2 mb 0.00 in0.0 mm 0.00 in0.0 mm 0.00 in0.0 mm
12:09 PM 61.7°F16.5°C 56.8°F13.8°C 84% 2.5 mph E4.0 kmh E 2.5 mph4.0 kmh 29.89 in1012.2 mb 0.00 in0.0 mm 0.00 in0.0 mm 0.00 in0.0 mm
12:14 PM 61.9°F16.6°C 57.4°F14.1°C 85% 0.2 mph E0.3 kmh E 2.5 mph4.0 kmh 29.89 in1012.2 mb 0.00 in0.0 mm 0.00 in0.0 mm 0.00 in0.0 mm
12:19 PM 61.7°F16.5°C 57.2°F14.0°C 85% Calm Calm -- 29.89 in1012.2 mb 0.00 in0.0 mm 0.00 in0.0 mm 0.00 in0.0 mm
12:24 PM 61.7°F16.5°C 57.6°F14.2°C 86% Calm Calm -- 29.88 in1011.9 mb 0.00 in0.0 mm 0.00 in0.0 mm 0.00 in0.0 mm
12:29 PM 61.7°F16.5°C 57.2°F14.0°C 85% Calm Calm -- 29.89 in1012.2 mb 0.00 in0.0 mm 0.00 in0.0 mm 0.00 in0.0 mm
12:34 PM 61.7°F16.5°C 56.8°F13.8°C 84% Calm Calm -- 29.89 in1012.2 mb 0.00 in0.0 mm 0.00 in0.0 mm 0.00 in0.0 mm
12:39 PM 61.9°F16.6°C 56.7°F13.7°C 83% 0.2 mph ENE0.3 kmh ENE 2.5 mph4.0 kmh 29.89 in1012.2 mb 0.00 in0.0 mm 0.00 in0.0 mm 0.00 in0.0 mm
12:44 PM 62.1°F16.7°C 56.8°F13.8°C 83% Calm Calm -- 29.89 in1012.2 mb 0.00 in0.0 mm 0.00 in0.0 mm 0.00 in0.0 mm
12:49 PM 62.4°F16.9°C 56.8°F13.8°C 82% 3.6 mph ENE5.8 kmh ENE 4.9 mph7.9 kmh 29.89 in1012.2 mb 0.00 in0.0 mm 0.00 in0.0 mm 0.00 in0.0 mm
12:54 PM 62.8°F17.1°C 57.6°F14.2°C 83% Calm Calm -- 29.89 in1012.2 mb 0.00 in0.0 mm 0.00 in0.0 mm 0.00 in0.0 mm
12:59 PM 63.1°F17.3°C 57.6°F14.2°C 82% 1.1 mph ENE1.8 kmh ENE 2.5 mph4.0 kmh 29.88 in1011.9 mb 0.00 in0.0 mm 0.00 in0.0 mm 0.00 in0.0 mm
01:04 PM 63.3°F17.4°C 57.7°F14.3°C 82% 1.8 mph ESE2.9 kmh ESE 2.5 mph4.0 kmh 29.88 in1011.9 mb 0.00 in0.0 mm 0.00 in0.0 mm 0.00 in0.0 mm
01:09 PM 63.5°F17.5°C 57.9°F14.4°C 82% 1.1 mph E1.8 kmh E 2.5 mph4.0 kmh 29.88 in1011.9 mb 0.00 in0.0 mm 0.00 in0.0 mm 0.00 in0.0 mm
01:14 PM 63.5°F17.5°C 57.6°F14.2°C 81% Calm Calm -- 29.88 in1011.9 mb 0.00 in0.0 mm 0.00 in0.0 mm 0.00 in0.0 mm
01:19 PM 63.7°F17.6°C 58.1°F14.5°C 82% Calm Calm -- 29.88 in1011.9 mb 0.00 in0.0 mm 0.00 in0.0 mm 0.00 in0.0 mm
01:24 PM 63.9°F17.7°C 58.3°F14.6°C 82% Calm Calm -- 29.87 in1011.5 mb 0.00 in0.0 mm 0.00 in0.0 mm 0.00 in0.0 mm
01:29 PM 63.9°F17.7°C 58.3°F14.6°C 82% Calm Calm -- 29.87 in1011.5 mb 0.00 in0.0 mm 0.00 in0.0 mm 0.00 in0.0 mm
01:34 PM 63.9°F17.7°C 58.3°F14.6°C 82% 3.6 mph E5.8 kmh E 4.9 mph7.9 kmh 29.87 in1011.5 mb 0.00 in0.0 mm 0.00 in0.0 mm 0.00 in0.0 mm
01:39 PM 63.9°F17.7°C 58.3°F14.6°C 82% 0.2 mph ENE0.3 kmh ENE 2.5 mph4.0 kmh 29.87 in1011.5 mb 0.00 in0.0 mm 0.00 in0.0 mm 0.00 in0.0 mm
01:44 PM 63.7°F17.6°C 58.5°F14.7°C 83% 0.2 mph E0.3 kmh E 2.5 mph4.0 kmh 29.87 in1011.5 mb 0.00 in0.0 mm 0.00 in0.0 mm 0.00 in0.0 mm
01:49 PM 63.5°F17.5°C 57.9°F14.4°C 82% Calm Calm -- 29.86 in1011.2 mb 0.00 in0.0 mm 0.00 in0.0 mm 0.00 in0.0 mm
01:54 PM 63.5°F17.5°C 57.9°F14.4°C 82% Calm Calm -- 29.86 in1011.2 mb 0.00 in0.0 mm 0.00 in0.0 mm 0.00 in0.0 mm
01:59 PM 63.5°F17.5°C 57.9°F14.4°C 82% Calm Calm -- 29.86 in1011.2 mb 0.00 in0.0 mm 0.00 in0.0 mm 0.00 in0.0 mm
02:04 PM 63.5°F17.5°C 57.9°F14.4°C 82% Calm Calm -- 29.86 in1011.2 mb 0.00 in0.0 mm 0.00 in0.0 mm 0.00 in0.0 mm
02:09 PM 63.5°F17.5°C 57.9°F14.4°C 82% Calm Calm -- 29.86 in1011.2 mb 0.00 in0.0 mm 0.00 in0.0 mm 0.00 in0.0 mm
02:14 PM 63.7°F17.6°C 58.1°F14.5°C 82% 0.9 mph E1.4 kmh E 2.5 mph4.0 kmh 29.85 in1010.8 mb 0.00 in0.0 mm 0.00 in0.0 mm 0.00 in0.0 mm
02:19 PM 63.7°F17.6°C 58.1°F14.5°C 82% 0.2 mph E0.3 kmh E 2.5 mph4.0 kmh 29.85 in1010.8 mb 0.00 in0.0 mm 0.00 in0.0 mm 0.00 in0.0 mm
02:24 PM 63.9°F17.7°C 58.3°F14.6°C 82% 0.9 mph ENE1.4 kmh ENE 2.5 mph4.0 kmh 29.85 in1010.8 mb 0.00 in0.0 mm 0.00 in0.0 mm 0.00 in0.0 mm
02:29 PM 63.9°F17.7°C 58.3°F14.6°C 82% Calm Calm -- 29.84 in1010.5 mb 0.00 in0.0 mm 0.00 in0.0 mm 0.00 in0.0 mm
02:34 PM 63.9°F17.7°C 58.3°F14.6°C 82% 1.3 mph E2.1 kmh E 2.5 mph4.0 kmh 29.84 in1010.5 mb 0.00 in0.0 mm 0.00 in0.0 mm 0.00 in0.0 mm
02:39 PM 64.0°F17.8°C 58.1°F14.5°C 81% Calm Calm -- 29.84 in1010.5 mb 0.00 in0.0 mm 0.00 in0.0 mm 0.00 in0.0 mm
02:44 PM 64.2°F17.9°C 58.3°F14.6°C 81% Calm Calm -- 29.84 in1010.5 mb 0.00 in0.0 mm 0.00 in0.0 mm 0.00 in0.0 mm
02:49 PM 64.4°F18.0°C 58.1°F14.5°C 80% Calm Calm -- 29.84 in1010.5 mb 0.00 in0.0 mm 0.00 in0.0 mm 0.00 in0.0 mm
02:54 PM 64.6°F18.1°C 57.9°F14.4°C 79% 2.7 mph ENE4.3 kmh ENE 4.9 mph7.9 kmh 29.83 in1010.2 mb 0.00 in0.0 mm 0.00 in0.0 mm 0.00 in0.0 mm
02:59 PM 64.8°F18.2°C 58.5°F14.7°C 80% Calm Calm -- 29.83 in1010.2 mb 0.00 in0.0 mm 0.00 in0.0 mm 0.00 in0.0 mm
03:04 PM 65.1°F18.4°C 58.1°F14.5°C 78% Calm Calm -- 29.83 in1010.2 mb 0.00 in0.0 mm 0.00 in0.0 mm 0.00 in0.0 mm
03:09 PM 65.7°F18.7°C 58.3°F14.6°C 77% 0.2 mph E0.3 kmh E 2.5 mph4.0 kmh 29.83 in1010.2 mb 0.00 in0.0 mm 0.00 in0.0 mm 0.00 in0.0 mm
03:14 PM 66.0°F18.9°C 58.6°F14.8°C 77% Calm Calm -- 29.83 in1010.2 mb 0.00 in0.0 mm 0.00 in0.0 mm 0.00 in0.0 mm
03:19 PM 66.2°F19.0°C 58.8°F14.9°C 77% 0.2 mph E0.3 kmh E 2.5 mph4.0 kmh 29.83 in1010.2 mb 0.00 in0.0 mm 0.00 in0.0 mm 0.00 in0.0 mm
03:24 PM 66.4°F19.1°C 59.0°F15.0°C 77% Calm Calm -- 29.83 in1010.2 mb 0.00 in0.0 mm 0.00 in0.0 mm 0.00 in0.0 mm
03:29 PM 66.7°F19.3°C 59.0°F15.0°C 76% Calm Calm -- 29.83 in1010.2 mb 0.00 in0.0 mm 0.00 in0.0 mm 0.00 in0.0 mm
03:34 PM 66.9°F19.4°C 59.2°F15.1°C 76% Calm Calm -- 29.83 in1010.2 mb 0.00 in0.0 mm 0.00 in0.0 mm 0.00 in0.0 mm
03:39 PM 66.9°F19.4°C 59.2°F15.1°C 76% Calm Calm -- 29.82 in1009.8 mb 0.00 in0.0 mm 0.00 in0.0 mm 0.00 in0.0 mm
03:44 PM 66.9°F19.4°C 59.5°F15.3°C 77% Calm Calm -- 29.82 in1009.8 mb 0.00 in0.0 mm 0.00 in0.0 mm 0.00 in0.0 mm
03:49 PM 66.9°F19.4°C 59.9°F15.5°C 78% Calm Calm -- 29.82 in1009.8 mb 0.00 in0.0 mm 0.00 in0.0 mm 0.00 in0.0 mm
03:54 PM 66.7°F19.3°C 59.7°F15.4°C 78% Calm Calm -- 29.82 in1009.8 mb 0.00 in0.0 mm 0.00 in0.0 mm 0.00 in0.0 mm
03:59 PM 66.4°F19.1°C 59.4°F15.2°C 78% Calm Calm -- 29.82 in1009.8 mb 0.00 in0.0 mm 0.00 in0.0 mm 0.00 in0.0 mm
04:04 PM 66.2°F19.0°C 59.2°F15.1°C 78% Calm Calm -- 29.82 in1009.8 mb 0.00 in0.0 mm 0.00 in0.0 mm 0.00 in0.0 mm
04:09 PM 66.0°F18.9°C 59.0°F15.0°C 78% Calm Calm -- 29.82 in1009.8 mb 0.00 in0.0 mm 0.00 in0.0 mm 0.00 in0.0 mm
04:14 PM 65.8°F18.8°C 58.5°F14.7°C 77% 1.8 mph E2.9 kmh E 2.5 mph4.0 kmh 29.81 in1009.5 mb 0.00 in0.0 mm 0.00 in0.0 mm 0.00 in0.0 mm
04:19 PM 66.0°F18.9°C 58.6°F14.8°C 77% 0.2 mph E0.3 kmh E 2.5 mph4.0 kmh 29.82 in1009.8 mb 0.00 in0.0 mm 0.00 in0.0 mm 0.00 in0.0 mm
04:24 PM 66.0°F18.9°C 59.0°F15.0°C 78% 0.9 mph E1.4 kmh E 2.5 mph4.0 kmh 29.82 in1009.8 mb 0.00 in0.0 mm 0.00 in0.0 mm 0.00 in0.0 mm
04:29 PM 66.0°F18.9°C 59.7°F15.4°C 80% 1.8 mph ENE2.9 kmh ENE 2.5 mph4.0 kmh 29.82 in1009.8 mb 0.00 in0.0 mm 0.00 in0.0 mm 0.00 in0.0 mm
04:34 PM 65.8°F18.8°C 59.5°F15.3°C 80% 0.4 mph ESE0.6 kmh ESE 2.5 mph4.0 kmh 29.82 in1009.8 mb 0.00 in0.0 mm 0.00 in0.0 mm 0.00 in0.0 mm
04:39 PM 65.7°F18.7°C 59.4°F15.2°C 80% Calm Calm -- 29.82 in1009.8 mb 0.00 in0.0 mm 0.00 in0.0 mm 0.00 in0.0 mm
04:44 PM 65.5°F18.6°C 59.2°F15.1°C 80% Calm Calm -- 29.82 in1009.8 mb 0.00 in0.0 mm 0.00 in0.0 mm 0.00 in0.0 mm
04:49 PM 65.3°F18.5°C 59.0°F15.0°C 80% Calm Calm -- 29.82 in1009.8 mb 0.00 in0.0 mm 0.00 in0.0 mm 0.00 in0.0 mm
04:54 PM 65.1°F18.4°C 58.5°F14.7°C 79% Calm Calm -- 29.81 in1009.5 mb 0.00 in0.0 mm 0.00 in0.0 mm 0.00 in0.0 mm
04:59 PM 65.3°F18.5°C 58.3°F14.6°C 78% 2.9 mph ENE4.7 kmh ENE 4.9 mph7.9 kmh 29.81 in1009.5 mb 0.00 in0.0 mm 0.00 in0.0 mm 0.00 in0.0 mm
05:04 PM 65.5°F18.6°C 58.8°F14.9°C 79% 0.2 mph ENE0.3 kmh ENE 2.5 mph4.0 kmh 29.81 in1009.5 mb 0.00 in0.0 mm 0.00 in0.0 mm 0.00 in0.0 mm
05:09 PM 65.7°F18.7°C 59.0°F15.0°C 79% Calm Calm -- 29.81 in1009.5 mb 0.00 in0.0 mm 0.00 in0.0 mm 0.00 in0.0 mm
05:14 PM 65.7°F18.7°C 59.0°F15.0°C 79% Calm Calm -- 29.81 in1009.5 mb 0.00 in0.0 mm 0.00 in0.0 mm 0.00 in0.0 mm
05:19 PM 65.8°F18.8°C 59.2°F15.1°C 79% 2.9 mph E4.7 kmh E 4.9 mph7.9 kmh 29.82 in1009.8 mb 0.00 in0.0 mm 0.00 in0.0 mm 0.00 in0.0 mm
05:24 PM 65.7°F18.7°C 59.0°F15.0°C 79% Calm Calm -- 29.80 in1009.1 mb 0.00 in0.0 mm 0.00 in0.0 mm 0.00 in0.0 mm
05:29 PM 65.7°F18.7°C 59.0°F15.0°C 79% Calm Calm -- 29.81 in1009.5 mb 0.00 in0.0 mm 0.00 in0.0 mm 0.00 in0.0 mm
05:34 PM 65.5°F18.6°C 59.2°F15.1°C 80% 0.4 mph E0.6 kmh E 2.5 mph4.0 kmh 29.81 in1009.5 mb 0.00 in0.0 mm 0.00 in0.0 mm 0.00 in0.0 mm
05:39 PM 65.3°F18.5°C 59.0°F15.0°C 80% Calm Calm -- 29.82 in1009.8 mb 0.00 in0.0 mm 0.00 in0.0 mm 0.00 in0.0 mm
05:44 PM 65.1°F18.4°C 58.8°F14.9°C 80% Calm Calm -- 29.82 in1009.8 mb 0.00 in0.0 mm 0.00 in0.0 mm 0.00 in0.0 mm
05:49 PM 64.9°F18.3°C 59.0°F15.0°C 81% Calm Calm -- 29.81 in1009.5 mb 0.00 in0.0 mm 0.00 in0.0 mm 0.00 in0.0 mm
05:54 PM 64.8°F18.2°C 58.8°F14.9°C 81% Calm Calm -- 29.82 in1009.8 mb 0.00 in0.0 mm 0.00 in0.0 mm 0.00 in0.0 mm
05:59 PM 64.8°F18.2°C 58.8°F14.9°C 81% 2.9 mph ENE4.7 kmh ENE 4.9 mph7.9 kmh 29.82 in1009.8 mb 0.00 in0.0 mm 0.00 in0.0 mm 0.00 in0.0 mm
06:04 PM 64.6°F18.1°C 58.6°F14.8°C 81% 1.1 mph ENE1.8 kmh ENE 2.5 mph4.0 kmh 29.82 in1009.8 mb 0.00 in0.0 mm 0.00 in0.0 mm 0.00 in0.0 mm
06:09 PM 64.6°F18.1°C 58.6°F14.8°C 81% 0.2 mph ENE0.3 kmh ENE 2.5 mph4.0 kmh 29.81 in1009.5 mb 0.00 in0.0 mm 0.00 in0.0 mm 0.00 in0.0 mm
06:14 PM 64.6°F18.1°C 58.6°F14.8°C 81% 1.1 mph E1.8 kmh E 2.5 mph4.0 kmh 29.82 in1009.8 mb 0.00 in0.0 mm 0.00 in0.0 mm 0.00 in0.0 mm
06:19 PM 64.6°F18.1°C 58.6°F14.8°C 81% Calm Calm -- 29.82 in1009.8 mb 0.00 in0.0 mm 0.00 in0.0 mm 0.00 in0.0 mm
06:24 PM 64.4°F18.0°C 58.8°F14.9°C 82% 0.9 mph E1.4 kmh E 2.5 mph4.0 kmh 29.81 in1009.5 mb 0.00 in0.0 mm 0.00 in0.0 mm 0.00 in0.0 mm
06:29 PM 64.4°F18.0°C 58.8°F14.9°C 82% Calm Calm -- 29.82 in1009.8 mb 0.00 in0.0 mm 0.00 in0.0 mm 0.00 in0.0 mm
06:34 PM 64.4°F18.0°C 58.8°F14.9°C 82% 1.3 mph E2.1 kmh E 2.5 mph4.0 kmh 29.82 in1009.8 mb 0.00 in0.0 mm 0.00 in0.0 mm 0.00 in0.0 mm
06:39 PM 64.2°F17.9°C 58.6°F14.8°C 82% 1.8 mph ENE2.9 kmh ENE 2.5 mph4.0 kmh 29.82 in1009.8 mb 0.00 in0.0 mm 0.00 in0.0 mm 0.00 in0.0 mm
06:44 PM 64.2°F17.9°C 58.6°F14.8°C 82% 2.0 mph E3.2 kmh E 2.5 mph4.0 kmh 29.81 in1009.5 mb 0.00 in0.0 mm 0.00 in0.0 mm 0.00 in0.0 mm
06:49 PM 64.0°F17.8°C 58.5°F14.7°C 82% 2.0 mph E3.2 kmh E 2.5 mph4.0 kmh 29.82 in1009.8 mb 0.00 in0.0 mm 0.00 in0.0 mm 0.00 in0.0 mm
06:54 PM 64.0°F17.8°C 58.5°F14.7°C 82% Calm Calm -- 29.83 in1010.2 mb 0.00 in0.0 mm 0.00 in0.0 mm 0.00 in0.0 mm
06:59 PM 63.9°F17.7°C 58.3°F14.6°C 82% Calm Calm -- 29.82 in1009.8 mb 0.00 in0.0 mm 0.00 in0.0 mm 0.00 in0.0 mm
07:04 PM 63.9°F17.7°C 58.3°F14.6°C 82% 0.2 mph E0.3 kmh E 2.5 mph4.0 kmh 29.83 in1010.2 mb 0.00 in0.0 mm 0.00 in0.0 mm 0.00 in0.0 mm
07:09 PM 63.7°F17.6°C 58.5°F14.7°C 83% Calm Calm -- 29.82 in1009.8 mb 0.00 in0.0 mm 0.00 in0.0 mm 0.00 in0.0 mm
07:14 PM 63.7°F17.6°C 58.5°F14.7°C 83% Calm Calm -- 29.83 in1010.2 mb 0.00 in0.0 mm 0.00 in0.0 mm 0.00 in0.0 mm
07:19 PM 63.5°F17.5°C 58.6°F14.8°C 84% 1.3 mph ENE2.1 kmh ENE 2.5 mph4.0 kmh 29.82 in1009.8 mb 0.00 in0.0 mm 0.00 in0.0 mm 0.00 in0.0 mm
07:24 PM 63.3°F17.4°C 58.5°F14.7°C 84% Calm Calm -- 29.82 in1009.8 mb 0.00 in0.0 mm 0.00 in0.0 mm 0.00 in0.0 mm
07:29 PM 63.3°F17.4°C 58.5°F14.7°C 84% 3.4 mph E5.5 kmh E 4.9 mph7.9 kmh 29.82 in1009.8 mb 0.00 in0.0 mm 0.00 in0.0 mm 0.00 in0.0 mm
07:34 PM 63.1°F17.3°C 58.3°F14.6°C 84% Calm Calm -- 29.82 in1009.8 mb 0.00 in0.0 mm 0.00 in0.0 mm 0.00 in0.0 mm
07:39 PM 63.0°F17.2°C 58.1°F14.5°C 84% Calm Calm -- 29.82 in1009.8 mb 0.00 in0.0 mm 0.00 in0.0 mm 0.00 in0.0 mm
07:44 PM 63.0°F17.2°C 58.5°F14.7°C 85% Calm Calm -- 29.82 in1009.8 mb 0.00 in0.0 mm 0.00 in0.0 mm 0.00 in0.0 mm
07:49 PM 62.8°F17.1°C 58.3°F14.6°C 85% Calm Calm -- 29.82 in1009.8 mb 0.00 in0.0 mm 0.00 in0.0 mm 0.00 in0.0 mm
07:54 PM 62.6°F17.0°C 58.1°F14.5°C 85% 0.9 mph ENE1.4 kmh ENE 2.5 mph4.0 kmh 29.82 in1009.8 mb 0.00 in0.0 mm 0.00 in0.0 mm 0.00 in0.0 mm
07:59 PM 62.4°F16.9°C 57.9°F14.4°C 85% Calm Calm -- 29.82 in1009.8 mb 0.00 in0.0 mm 0.00 in0.0 mm 0.00 in0.0 mm
08:04 PM 62.4°F16.9°C 57.9°F14.4°C 85% 1.1 mph E1.8 kmh E 2.5 mph4.0 kmh 29.82 in1009.8 mb 0.00 in0.0 mm 0.00 in0.0 mm 0.00 in0.0 mm
08:09 PM 62.2°F16.8°C 58.1°F14.5°C 86% Calm Calm -- 29.83 in1010.2 mb 0.00 in0.0 mm 0.00 in0.0 mm 0.00 in0.0 mm
08:14 PM 62.2°F16.8°C 58.1°F14.5°C 86% 2.7 mph ENE4.3 kmh ENE 4.9 mph7.9 kmh 29.83 in1010.2 mb 0.00 in0.0 mm 0.00 in0.0 mm 0.00 in0.0 mm
08:19 PM 62.1°F16.7°C 57.9°F14.4°C 86% 0.2 mph NE0.3 kmh NE 2.5 mph4.0 kmh 29.83 in1010.2 mb 0.00 in0.0 mm 0.00 in0.0 mm 0.00 in0.0 mm
08:24 PM 62.1°F16.7°C 57.9°F14.4°C 86% Calm Calm -- 29.83 in1010.2 mb 0.00 in0.0 mm 0.00 in0.0 mm 0.00 in0.0 mm
08:29 PM 61.9°F16.6°C 57.7°F14.3°C 86% 0.9 mph E1.4 kmh E 2.5 mph4.0 kmh 29.83 in1010.2 mb 0.00 in0.0 mm 0.00 in0.0 mm 0.00 in0.0 mm
08:34 PM 61.9°F16.6°C 57.7°F14.3°C 86% Calm Calm -- 29.83 in1010.2 mb 0.00 in0.0 mm 0.00 in0.0 mm 0.00 in0.0 mm
08:39 PM 61.7°F16.5°C 57.6°F14.2°C 86% Calm Calm -- 29.83 in1010.2 mb 0.00 in0.0 mm 0.00 in0.0 mm 0.00 in0.0 mm
08:44 PM 61.7°F16.5°C 57.6°F14.2°C 86% 0.2 mph E0.3 kmh E 2.5 mph4.0 kmh 29.83 in1010.2 mb 0.00 in0.0 mm 0.00 in0.0 mm 0.00 in0.0 mm
08:49 PM 61.5°F16.4°C 57.7°F14.3°C 87% 1.3 mph E2.1 kmh E 2.5 mph4.0 kmh 29.83 in1010.2 mb 0.00 in0.0 mm 0.00 in0.0 mm 0.00 in0.0 mm
08:54 PM 61.5°F16.4°C 57.7°F14.3°C 87% 0.2 mph E0.3 kmh E 2.5 mph4.0 kmh 29.83 in1010.2 mb 0.00 in0.0 mm 0.00 in0.0 mm 0.00 in0.0 mm
08:59 PM 61.3°F16.3°C 57.6°F14.2°C 87% 0.2 mph ENE0.3 kmh ENE 2.5 mph4.0 kmh 29.84 in1010.5 mb 0.00 in0.0 mm 0.00 in0.0 mm 0.00 in0.0 mm
09:04 PM 61.3°F16.3°C 57.6°F14.2°C 87% Calm Calm -- 29.83 in1010.2 mb 0.00 in0.0 mm 0.00 in0.0 mm 0.00 in0.0 mm
09:09 PM 61.3°F16.3°C 57.6°F14.2°C 87% Calm Calm -- 29.84 in1010.5 mb 0.00 in0.0 mm 0.00 in0.0 mm 0.00 in0.0 mm
09:14 PM 61.2°F16.2°C 57.4°F14.1°C 87% 0.4 mph E0.6 kmh E 2.5 mph4.0 kmh 29.84 in1010.5 mb 0.00 in0.0 mm 0.00 in0.0 mm 0.00 in0.0 mm
09:19 PM 61.2°F16.2°C 57.4°F14.1°C 87% 1.1 mph E1.8 kmh E 2.5 mph4.0 kmh 29.84 in1010.5 mb 0.00 in0.0 mm 0.00 in0.0 mm 0.00 in0.0 mm
09:24 PM 61.2°F16.2°C 57.4°F14.1°C 87% Calm Calm -- 29.84 in1010.5 mb 0.00 in0.0 mm 0.00 in0.0 mm 0.00 in0.0 mm
09:29 PM 61.2°F16.2°C 57.4°F14.1°C 87% Calm Calm -- 29.84 in1010.5 mb 0.00 in0.0 mm 0.00 in0.0 mm 0.00 in0.0 mm
09:34 PM 61.2°F16.2°C 57.4°F14.1°C 87% Calm Calm -- 29.85 in1010.8 mb 0.00 in0.0 mm 0.00 in0.0 mm 0.00 in0.0 mm
09:39 PM 61.2°F16.2°C 57.4°F14.1°C 87% Calm Calm -- 29.85 in1010.8 mb 0.00 in0.0 mm 0.00 in0.0 mm 0.00 in0.0 mm
09:44 PM 61.0°F16.1°C 57.2°F14.0°C 87% Calm Calm -- 29.85 in1010.8 mb 0.00 in0.0 mm 0.00 in0.0 mm 0.00 in0.0 mm
09:49 PM 61.0°F16.1°C 57.2°F14.0°C 87% Calm Calm -- 29.85 in1010.8 mb 0.00 in0.0 mm 0.00 in0.0 mm 0.00 in0.0 mm
09:54 PM 61.0°F16.1°C 57.2°F14.0°C 87% Calm Calm -- 29.85 in1010.8 mb 0.00 in0.0 mm 0.00 in0.0 mm 0.00 in0.0 mm
09:59 PM 60.8°F16.0°C 57.2°F14.0°C 88% 0.9 mph E1.4 kmh E 2.5 mph4.0 kmh 29.85 in1010.8 mb 0.00 in0.0 mm 0.00 in0.0 mm 0.00 in0.0 mm
10:04 PM 60.8°F16.0°C 57.2°F14.0°C 88% 0.4 mph E0.6 kmh E 2.5 mph4.0 kmh 29.85 in1010.8 mb 0.00 in0.0 mm 0.00 in0.0 mm 0.00 in0.0 mm
10:09 PM 60.8°F16.0°C 57.2°F14.0°C 88% 1.3 mph E2.1 kmh E 2.5 mph4.0 kmh 29.85 in1010.8 mb 0.00 in0.0 mm 0.00 in0.0 mm 0.00 in0.0 mm
10:14 PM 60.6°F15.9°C 57.0°F13.9°C 88% Calm Calm -- 29.85 in1010.8 mb 0.00 in0.0 mm 0.00 in0.0 mm 0.00 in0.0 mm
10:19 PM 60.6°F15.9°C 57.0°F13.9°C 88% Calm Calm -- 29.86 in1011.2 mb 0.00 in0.0 mm 0.00 in0.0 mm 0.00 in0.0 mm
10:24 PM 60.6°F15.9°C 56.8°F13.8°C 87% Calm Calm -- 29.85 in1010.8 mb 0.00 in0.0 mm 0.00 in0.0 mm 0.00 in0.0 mm
10:29 PM 60.6°F15.9°C 56.8°F13.8°C 87% Calm Calm -- 29.87 in1011.5 mb 0.00 in0.0 mm 0.00 in0.0 mm 0.00 in0.0 mm
10:34 PM 60.6°F15.9°C 56.8°F13.8°C 87% Calm Calm -- 29.86 in1011.2 mb 0.00 in0.0 mm 0.00 in0.0 mm 0.00 in0.0 mm
10:39 PM 60.6°F15.9°C 56.8°F13.8°C 87% Calm Calm -- 29.87 in1011.5 mb 0.00 in0.0 mm 0.00 in0.0 mm 0.00 in0.0 mm
10:44 PM 60.6°F15.9°C 56.8°F13.8°C 87% Calm Calm -- 29.86 in1011.2 mb 0.00 in0.0 mm 0.00 in0.0 mm 0.00 in0.0 mm
10:49 PM 60.6°F15.9°C 56.8°F13.8°C 87% Calm Calm -- 29.86 in1011.2 mb 0.00 in0.0 mm 0.00 in0.0 mm 0.00 in0.0 mm
10:54 PM 60.6°F15.9°C 56.8°F13.8°C 87% Calm Calm -- 29.87 in1011.5 mb 0.00 in0.0 mm 0.00 in0.0 mm 0.00 in0.0 mm
10:59 PM 60.6°F15.9°C 56.8°F13.8°C 87% Calm Calm -- 29.86 in1011.2 mb 0.00 in0.0 mm 0.00 in0.0 mm 0.00 in0.0 mm
11:04 PM 60.6°F15.9°C 56.8°F13.8°C 87% 0.4 mph ESE0.6 kmh ESE 2.5 mph4.0 kmh 29.87 in1011.5 mb 0.00 in0.0 mm 0.00 in0.0 mm 0.00 in0.0 mm
11:09 PM 60.6°F15.9°C 56.8°F13.8°C 87% Calm Calm -- 29.87 in1011.5 mb 0.00 in0.0 mm 0.00 in0.0 mm 0.00 in0.0 mm
11:14 PM 60.6°F15.9°C 56.8°F13.8°C 87% Calm Calm -- 29.87 in1011.5 mb 0.00 in0.0 mm 0.00 in0.0 mm 0.00 in0.0 mm
11:19 PM 60.6°F15.9°C 56.8°F13.8°C 87% Calm Calm -- 29.86 in1011.2 mb 0.00 in0.0 mm 0.00 in0.0 mm 0.00 in0.0 mm
11:24 PM 60.6°F15.9°C 56.8°F13.8°C 87% Calm Calm -- 29.87 in1011.5 mb 0.00 in0.0 mm 0.00 in0.0 mm 0.00 in0.0 mm
11:29 PM 60.6°F15.9°C 56.8°F13.8°C 87% Calm Calm -- 29.86 in1011.2 mb 0.00 in0.0 mm 0.00 in0.0 mm 0.00 in0.0 mm
11:34 PM 60.6°F15.9°C 56.8°F13.8°C 87% Calm Calm -- 29.87 in1011.5 mb 0.00 in0.0 mm 0.00 in0.0 mm 0.00 in0.0 mm
11:39 PM 60.6°F15.9°C 56.8°F13.8°C 87% Calm Calm -- 29.87 in1011.5 mb 0.00 in0.0 mm 0.00 in0.0 mm 0.00 in0.0 mm
11:44 PM 60.6°F15.9°C 56.5°F13.6°C 86% Calm Calm -- 29.87 in1011.5 mb 0.00 in0.0 mm 0.00 in0.0 mm 0.00 in0.0 mm
11:49 PM 60.6°F15.9°C 56.5°F13.6°C 86% Calm Calm -- 29.87 in1011.5 mb 0.00 in0.0 mm 0.00 in0.0 mm 0.00 in0.0 mm
11:54 PM 60.6°F15.9°C 56.5°F13.6°C 86% Calm Calm -- 29.87 in1011.5 mb 0.00 in0.0 mm 0.00 in0.0 mm 0.00 in0.0 mm
11:59 PM 60.6°F15.9°C 56.5°F13.6°C 86% Calm Calm -- 29.88 in1011.9 mb 0.00 in0.0 mm 0.00 in0.0 mm 0.00 in0.0 mm